Regional Weather Roundup
Issued by NWS

Home | Current Version | Previous Version | Graphics & Text | Print | Product List | Glossary On
Versions: 1 2 3 4 5 6 7 8 9 10 11 12 13 14 15 16 17 18 19 20 21 22 23 24 25 26 27 28 29 30 31 32 33 34 35 36 37 38 39 40 41 42 43 44 45 46 47 48 49 50
000
ASUS43 KFSD 301810
RWRSD

WEATHER ROUNDUP FOR SOUTH DAKOTA
NATIONAL WEATHER SERVICE SIOUX FALLS SD
100 PM CDT THU JUL 30 2015

NOTE: "FAIR" INDICATES FEW OR NO CLOUDS BELOW 12,000 FEET WITH NO
SIGNIFICANT WEATHER AND/OR OBSTRUCTIONS TO VISIBILITY.


SDZ001>005-009-010-012>017-301900-
NORTHWEST AND NORTH CENTRAL SOUTH DAKOTA

CITY           SKY/WX    TMP DP  RH WIND       PRES   REMARKS
BUFFALO          N/A     85  38  18 W15G23    30.17S
FAITH            N/A     88  37  16 W9        30.21S
MOBRIDGE       SUNNY     87  54  32 NW9       30.13S
$$

SDZ012>016-024>037-041>051-057-063-072>074-301900-
SOUTHWEST AND SOUTH CENTRAL SOUTH DAKOTA

CITY           SKY/WX    TMP DP  RH WIND       PRES   REMARKS
RAPID CTY ARPT SUNNY     84  45  25 N9        30.27S
PIERRE         SUNNY     87  49  26 NW9       30.16S
CUSTER         SUNNY     78  36  21 N8        30.40S
ELLSWORTH AFB  SUNNY     83  42  22 N9        30.26S
PHILIP         SUNNY     88  49  25 NW9       30.20S
PINE RIDGE     SUNNY     86  45  23 NE8       30.27S
SPEARFISH      FAIR      79  45  29 N3        30.31F
WINNER         FAIR      89  49  25 NW6       30.18S
$$

SDZ004>011-016>023-039-040-301900-
NORTHEAST SOUTH DAKOTA

CITY           SKY/WX    TMP DP  RH WIND       PRES   REMARKS
ABERDEEN       SUNNY     86  53  32 W12G20    30.12S
WATERTOWN      SUNNY     82  53  36 W8        30.15S
BROOKINGS      SUNNY     81  55  41 NW7       30.17S
SISSETON         N/A     81  57  43 NW9       30.09F
$$

SDZ017-020-022-023-036>040-048>070-301900-
SOUTHEAST SOUTH DAKOTA

CITY           SKY/WX    TMP DP  RH WIND       PRES   REMARKS
SIOUX FALLS    SUNNY     83  63  50 W7        30.15S
HURON          SUNNY     83  56  39 CALM      30.14S
CHAMBERLAIN    SUNNY     84  52  33 SW5       30.17S
MITCHELL       SUNNY     85  57  38 VRB3      30.15F
YANKTON        SUNNY     84  61  45 W9        30.15S
$$

ABBREVIATIONS USED IN REMARKS
   TC - TEMPERATURE IN CELSIUS
  WCI - WIND CHILL INDEX
   HX - HEAT INDEX
  VSB - VISIBILITY




USA.gov is the U.S. government's official web portal to all federal, state and local government web resources and services.